Regional Weather Roundup
Issued by NWS

Home | Current Version | Previous Version | Text Only | Print | Product List | Glossary On
Versions: 1 2 3 4 5 6 7 8 9 10 11 12 13 14 15 16 17 18 19 20 21 22 23 24 25 26 27 28 29 30 31 32 33 34 35 36 37 38 39 40 41 42 43 44 45 46 47 48 49 50
000
ASUS43 KLMK 220210
RWRKY
KENTUCKY REGIONAL WEATHER ROUNDUP
NATIONAL WEATHER SERVICE LOUISVILLE KY
1000 PM EDT MON JUL 21 2014

NOTE "FAIR" INDICATES FEW OR NO CLOUDS BELOW 12,000 FEET
WITH NO SIGNIFICANT WEATHER AND/OR OBSTRUCTIONS TO VISIBILITY.

KYZ001>023-026-027-061>063-070>075-220300-
WESTERN AND SOUTH CENTRAL KENTUCKY

CITY           SKY/WX    TMP DP  RH WIND       PRES   REMARKS
PADUCAH        CLEAR     76  66  71 CALM      30.05S
HENDERSON      CLEAR     73  66  78 CALM      30.05S
OWENSBORO      CLEAR     81  66  60 CALM      30.06S
HOPKINSVILLE   CLEAR     80  65  59 N2        30.05R
BOWLING GREEN  CLEAR     82  66  58 N5        30.06R
GLASGOW        CLEAR     76  68  76 CALM      30.07R
$$

KYZ024-025-028>034-038-045-046-053-220300-
NORTH CENTRAL KENTUCKY

CITY           SKY/WX    TMP DP  RH WIND       PRES   REMARKS
LOUISVILLE/SDF PTCLDY    82  66  58 NE5       30.07R
LOUISVILLE/LOU CLEAR     82  66  58 CALM      30.08R
FORT KNOX      LGT RAIN  72  70  92 N5        30.07R
$$

KYZ035>037-039>044-047>052-055>060-089>105-220300-
NORTHEAST KENTUCKY

CITY           SKY/WX    TMP DP  RH WIND       PRES   REMARKS
LEXINGTON      PTCLDY    80  67  64 NE6       30.10R
COVINGTON      CLEAR     79  65  62 N6        30.09R
FRANKFORT      CLEAR     75  68  78 N3        30.08R
$$

KYZ054-064>069-076>088-106>120-220300-
SOUTHEAST KENTUCKY

CITY           SKY/WX    TMP DP  RH WIND       PRES   REMARKS
JACKSON        PTCLDY    78  68  71 VRB3      30.12R
LONDON         PTCLDY    78  70  76 CALM      30.11R
SOMERSET       CLEAR     77  68  73 CALM      30.10R
MIDDLESBORO    CLOUDY    76  72  85 SW3       30.12R
MONTICELLO     CLEAR     73  71  93 CALM      30.10R
$$



USA.gov is the U.S. government's official web portal to all federal, state and local government web resources and services.